カタリナ彗星

C/2022 L1 ( Catalina )

English version
Home page
Updated on November 26, 2022

---------------------------------------------------------------------

・ プロフィール

発見日 2022年6月4日
発見光度 19.3等
発見者 Catalina Sky Survey

・ 写真集

・ 軌道要素

Epoch 2022 Aug. 9.0 TT = JDT 2459800.5
T 2022 Sept. 28.24872 TT                                Rudenko
q   1.5915087            (2000.0)            P               Q
z  +0.0018701      Peri.   59.85343     -0.16160069     -0.67248961
 +/-0.0000063      Node   300.02468     -0.90481271     +0.39312897
e   0.9970238      Incl.  123.46859     +0.39395326     +0.62706247
>From 404 observations 2022 May 31-Oct. 17, mean residual 0".6.

・ 星図

・ 光度変化

        m1 = 10.5 + 5 logΔ + 20.0 log r

---------------------------------------------------------------------

軌道要素はM.P.E.C. 2022-U146に掲載されたものです。
星図はステラナビゲータ Ver.10 (アストロアーツ) で作成したものです。
光度グラフはComet for Windowsで作成したものです。

---------------------------------------------------------------------

Copyright(C) Seiichi Yoshida (comet@aerith.net). All rights reserved.